RRR4226 LMML-LXGB

Flight info

Callsign RRR4226
Flight time N/A
Altitude 36000
Route GZO L30 NEVNA DCT OMENI UL874 DIMAO UZ888 BABOR UA31 BNA UZ444 DAHRA UA411 MOS UM744 CARBO DCT GOLFO DCT OBAKA M744 MGA M985 PIMOS
Aircraft A400/H-SDE3FGHIRWY/L4T

Departure

Time 2026-04-28 09:38
Airport Malta International Airport (LMML)

Arrival

Time N/A
Airport Gibraltar Airport (LXGB)
Time Latitude Longitude Altitude Speed Heading
2026-04-28 09:31 35.85609 14.48288 272 ft 0 kts
2026-04-28 09:33 35.85619 14.48285 272 ft 2 kts 335°
2026-04-28 09:33 35.85618 14.48269 272 ft 3 kts 260°
2026-04-28 09:34 35.85621 14.48233 273 ft 6 kts 294°
2026-04-28 09:34 35.85671 14.48206 271 ft 10 kts 352°
2026-04-28 09:34 35.85760 14.48189 265 ft 16 kts 350°
2026-04-28 09:34 35.85891 14.48163 257 ft 21 kts 351°
2026-04-28 09:35 35.86023 14.48094 256 ft 20 kts 322°
2026-04-28 09:35 35.86061 14.48010 257 ft 3 kts 209°
2026-04-28 09:35 35.86027 14.47997 257 ft 7 kts 199°
2026-04-28 09:35 35.85978 14.47966 258 ft 8 kts 218°
2026-04-28 09:36 35.85944 14.47902 259 ft 10 kts 244°
2026-04-28 09:36 35.85917 14.47812 261 ft 12 kts 251°
2026-04-28 09:36 35.85886 14.47706 262 ft 14 kts 249°
2026-04-28 09:36 35.85835 14.47659 262 ft 8 kts 137°
2026-04-28 09:37 35.85787 14.47715 262 ft 11 kts 139°
2026-04-28 09:37 35.85730 14.47776 264 ft 10 kts 135°
2026-04-28 09:37 35.85616 14.47925 281 ft 65 kts 133°
2026-04-28 09:37 35.85056 14.48624 313 ft 157 kts 134°
2026-04-28 09:38 35.84227 14.49642 1016 ft 171 kts 133°
2026-04-28 09:38 35.83355 14.50678 1959 ft 184 kts 139°
2026-04-28 09:38 35.82050 14.51277 2497 ft 224 kts 178°
2026-04-28 09:38 35.80548 14.50550 3391 ft 245 kts 218°
2026-04-28 09:39 35.79535 14.48776 4246 ft 263 kts 242°
2026-04-28 09:39 35.78759 14.46750 5296 ft 268 kts 244°
2026-04-28 09:39 35.77925 14.44681 6437 ft 271 kts 242°
2026-04-28 09:39 35.77020 14.42633 7554 ft 274 kts 240°
2026-04-28 09:40 35.76137 14.40541 8662 ft 277 kts 248°
2026-04-28 09:40 35.75887 14.38200 9754 ft 281 kts 277°
2026-04-28 09:40 35.76681 14.35998 10746 ft 291 kts 308°
2026-04-28 09:40 35.78356 14.34555 11604 ft 304 kts 338°
2026-04-28 09:41 35.80480 14.34218 12496 ft 314 kts 357°
2026-04-28 09:41 35.82681 14.34305 13389 ft 319 kts 359°
2026-04-28 09:41 35.84888 14.34190 14258 ft 318 kts 343°
2026-04-28 09:41 35.86914 14.33127 15121 ft 318 kts 329°
2026-04-28 09:42 35.88832 14.31743 15988 ft 320 kts 326°
2026-04-28 09:42 35.90744 14.30294 16827 ft 325 kts 326°
2026-04-28 09:42 35.92682 14.28823 17670 ft 328 kts 326°
2026-04-28 09:42 35.94640 14.27346 18499 ft 332 kts 326°
2026-04-28 09:43 35.96627 14.25854 19305 ft 336 kts 326°
2026-04-28 09:43 35.98610 14.24310 20108 ft 338 kts 322°
2026-04-28 09:43 36.00420 14.22466 20944 ft 338 kts 313°
2026-04-28 09:43 36.01916 14.20223 21716 ft 339 kts 302°
2026-04-28 09:44 36.03013 14.17644 22463 ft 341 kts 291°
2026-04-28 09:44 36.03663 14.14816 23194 ft 344 kts 280°
2026-04-28 09:44 36.03921 14.11865 23873 ft 347 kts 275°
2026-04-28 09:44 36.04022 14.08873 24515 ft 350 kts 272°
2026-04-28 09:45 36.04044 14.05853 25137 ft 352 kts 271°
2026-04-28 09:45 36.04037 14.02868 25747 ft 353 kts 271°
2026-04-28 09:45 36.04027 13.99836 26343 ft 353 kts 272°
2026-04-28 09:45 36.04026 13.96799 26900 ft 353 kts 272°
2026-04-28 09:46 36.04038 13.93760 27389 ft 354 kts 272°
2026-04-28 09:46 36.04059 13.90713 27870 ft 355 kts 272°
2026-04-28 09:46 36.04085 13.87662 28300 ft 356 kts 272°
2026-04-28 09:46 36.04113 13.84593 28728 ft 357 kts 273°
2026-04-28 09:47 36.04141 13.81523 29116 ft 358 kts 273°
2026-04-28 09:47 36.04167 13.78451 29544 ft 357 kts 273°
2026-04-28 09:47 36.04194 13.75394 30075 ft 354 kts 273°
2026-04-28 09:47 36.04218 13.72366 30574 ft 351 kts 273°
2026-04-28 09:48 36.04241 13.69361 31070 ft 349 kts 273°
2026-04-28 09:48 36.04265 13.66370 31533 ft 347 kts 273°
2026-04-28 09:48 36.04288 13.63401 32027 ft 345 kts 273°
2026-04-28 09:48 36.04311 13.60440 32495 ft 343 kts 273°
2026-04-28 09:49 36.04332 13.57505 32951 ft 341 kts 273°
2026-04-28 09:49 36.04352 13.54588 33430 ft 339 kts 273°
2026-04-28 09:49 36.04372 13.51680 33873 ft 337 kts 273°
2026-04-28 09:49 36.04390 13.48829 34325 ft 335 kts 273°
2026-04-28 09:50 36.04407 13.45952 34718 ft 335 kts 273°
2026-04-28 09:50 36.04425 13.43066 35049 ft 337 kts 273°
2026-04-28 09:50 36.04442 13.40166 35380 ft 338 kts 273°
2026-04-28 09:50 36.04459 13.37257 35717 ft 338 kts 273°
2026-04-28 09:51 36.04475 13.34354 35994 ft 338 kts 273°
2026-04-28 09:51 36.04489 13.31450 36071 ft 339 kts 273°
2026-04-28 09:51 36.04514 13.25605 36064 ft 340 kts 273°
2026-04-28 09:52 36.04538 13.19764 36060 ft 340 kts 273°
2026-04-28 09:52 36.04560 13.13918 36069 ft 340 kts 272°
2026-04-28 09:53 36.04581 13.08068 36062 ft 340 kts 272°
2026-04-28 09:53 36.04598 13.02234 36070 ft 341 kts 272°
2026-04-28 09:54 36.04613 12.96360 36069 ft 341 kts 272°
2026-04-28 09:54 36.04625 12.90484 36066 ft 342 kts 272°
2026-04-28 09:55 36.04634 12.84613 36068 ft 342 kts 272°
2026-04-28 09:55 36.04640 12.78763 36064 ft 342 kts 272°
2026-04-28 09:56 36.04643 12.72883 36064 ft 342 kts 272°
2026-04-28 09:56 36.04644 12.67005 36064 ft 342 kts 272°
2026-04-28 09:57 36.04642 12.61114 36063 ft 342 kts 272°
2026-04-28 09:57 36.04637 12.55229 36055 ft 342 kts 272°
2026-04-28 09:58 36.04629 12.49364 36048 ft 341 kts 272°
2026-04-28 09:58 36.04618 12.43497 36062 ft 341 kts 272°
2026-04-28 09:59 36.04605 12.37630 36059 ft 341 kts 272°
2026-04-28 09:59 36.04588 12.31766 36057 ft 341 kts 272°
2026-04-28 10:00 36.04568 12.25952 36059 ft 342 kts 272°
2026-04-28 10:00 36.04545 12.20086 36060 ft 340 kts 272°
2026-04-28 10:01 36.04520 12.14257 36052 ft 340 kts 272°
2026-04-28 10:01 36.04493 12.08401 36056 ft 340 kts 272°
2026-04-28 10:02 36.04462 12.02560 36055 ft 340 kts 272°
2026-04-28 10:02 36.04428 11.96713 36060 ft 340 kts 272°
2026-04-28 10:03 36.04391 11.90872 36066 ft 340 kts 271°
2026-04-28 10:03 36.04352 11.85026 36064 ft 340 kts 271°
2026-04-28 10:04 36.04318 11.80180 36067 ft 340 kts 271°
2026-04-28 10:04 36.04274 11.74325 36066 ft 340 kts 271°
2026-04-28 10:05 36.04226 11.68483 36059 ft 340 kts 271°
2026-04-28 10:05 36.04177 11.62639 36061 ft 340 kts 271°
2026-04-28 10:06 36.04123 11.56793 36058 ft 341 kts 271°
2026-04-28 10:06 36.04069 11.50947 36065 ft 341 kts 272°
2026-04-28 10:07 36.04176 11.45096 36060 ft 340 kts 274°
2026-04-28 10:07 36.04394 11.39298 36068 ft 340 kts 274°
2026-04-28 10:08 36.04618 11.33465 36062 ft 340 kts 274°
2026-04-28 10:08 36.04828 11.27630 36049 ft 340 kts 274°